Weather History for Ann Arbor, MI

Change the Weather History Date:

Sunday, November 25, 2012

  Actual Average Record
Temperature  
Mean Temperature 32 °F -  
Max Temperature 37 °F 43 °F 62 °F (2001)
Min Temperature 26 °F 28 °F 8 °F (2005)
Degree Days  
Heating Degree Days 34    
Moisture  
Dew Point 23 °F    
Average Humidity 74    
Maximum Humidity 93    
Minimum Humidity 62    
Precipitation  
Precipitation 0.00 in - - ()
Sea Level Pressure  
Sea Level Pressure 29.94 in    
Wind  
Wind Speed 9 mph (WSW)    
Max Wind Speed 15 mph    
Max Gust Speed 24 mph    
Visibility 8 miles    
Events Snow    
Averages and records for this station are not official NWS values.
T = Trace of Precipitation, MM = Missing Value Source: NWS Daily Summary

Daily Weather History Graph

Daily Weather History Graph

Search for Another Location

Airport:

Trip Planner

Search our weather history database for the weather conditions in past years. The results will help you decide how hot, cold, wet, or windy it might be!

Date:

Astronomy

Nov. 25, 2012 Rise Set
Actual Time 7:37 AM EST 5:05 PM EST
Civil Twilight 7:07 AM EST 5:36 PM EST
Nautical Twilight 6:32 AM EST 6:11 PM EST
Astronomical Twilight 5:58 AM EST 6:44 PM EST
Moon 3:24 PM EST (11/25) 4:48 AM EST (11/25)
Length of Visible Light 10h 29m
Length of Day
9h 27m
Waxing Gibbous, 93% of the Moon is Illuminated
Nov 25
Waxing Gibbous
Nov 28
Full
Dec 6
Last Quarter
Dec 13
New
Dec 20
First Quarter

Hourly Weather History & Observations

Time (EST) Temp. Windchill Dew Point Humidity Pressure Visibility Wind Dir Wind Speed Gust Speed Precip Events Conditions
12:31 AM 30.2 °F 21.9 °F 19.4 °F 64% 30.03 in 10.0 mi WSW 9.2 mph - N/A   Overcast
12:46 AM 28.4 °F 19.7 °F 19.4 °F 69% 30.02 in 10.0 mi WSW 9.2 mph - N/A   Overcast
12:53 AM 28.9 °F 20.4 °F 19.0 °F 67% 30.04 in 10.0 mi WSW 9.2 mph - N/A   Overcast
1:53 AM 28.9 °F 21.9 °F 21.9 °F 75% 30.02 in 10.0 mi SW 6.9 mph - N/A   Overcast
2:53 AM 28.9 °F 21.1 °F 21.0 °F 72% 30.02 in 10.0 mi WSW 8.1 mph 19.6 mph N/A   Overcast
3:47 AM 26.6 °F 17.5 °F 21.2 °F 80% 29.97 in 1.8 mi WSW 9.2 mph - 0.00 in Snow Light Snow
3:53 AM 27.0 °F 17.3 °F 21.9 °F 81% 30.00 in 1.0 mi SW 10.4 mph - 0.00 in Snow Light Snow
4:03 AM 26.6 °F 17.5 °F 23.0 °F 86% 29.96 in 2.0 mi SW 9.2 mph - 0.00 in Snow Light Snow
4:10 AM 26.6 °F 19.1 °F 23.0 °F 86% 29.96 in 6.0 mi SW 6.9 mph - 0.00 in Snow Light Snow
4:53 AM 27.0 °F 20.5 °F 21.9 °F 81% 29.97 in 10.0 mi SSW 5.8 mph - 0.00 in   Overcast
5:53 AM 28.0 °F 21.7 °F 21.0 °F 75% 29.96 in 10.0 mi SSW 5.8 mph - N/A   Overcast
6:53 AM 28.0 °F 20.0 °F 21.0 °F 75% 29.93 in 10.0 mi SSW 8.1 mph - N/A   Overcast
7:20 AM 26.6 °F 18.2 °F 21.2 °F 80% 29.90 in 1.8 mi SSW 8.1 mph - 0.00 in Snow Light Snow
7:24 AM 26.6 °F 18.2 °F 23.0 °F 86% 29.90 in 1.2 mi SSW 8.1 mph - 0.00 in Snow Light Snow
7:35 AM 26.6 °F 16.8 °F 23.0 °F 86% 29.89 in 1.8 mi SSW 10.4 mph - 0.00 in Snow Light Snow
7:42 AM 26.6 °F 18.2 °F 24.8 °F 93% 29.89 in 2.5 mi SSW 8.1 mph - 0.00 in Snow Light Snow
7:47 AM 26.6 °F 17.5 °F 23.0 °F 86% 29.89 in 3.0 mi SSW 9.2 mph - 0.00 in Snow Light Snow
7:53 AM 27.0 °F 18.0 °F 23.0 °F 85% 29.92 in 4.0 mi SSW 9.2 mph - 0.00 in Snow Light Snow
8:53 AM 28.0 °F 19.3 °F 23.0 °F 81% 29.91 in 10.0 mi SW 9.2 mph - 0.00 in   Overcast
9:53 AM 30.9 °F 21.7 °F 23.0 °F 72% 29.91 in 10.0 mi SW 11.5 mph - N/A   Overcast
10:53 AM 32.0 °F 23.0 °F 24.1 °F 73% 29.90 in 10.0 mi SW 11.5 mph - N/A   Overcast
11:53 AM 33.1 °F 23.9 °F 24.1 °F 70% 29.87 in 10.0 mi SW 12.7 mph - N/A   Overcast
12:53 PM 36.0 °F 28.5 °F 25.0 °F 64% 29.86 in 10.0 mi SW 10.4 mph - N/A   Overcast
1:53 PM 36.0 °F 26.7 °F 25.0 °F 64% 29.86 in 10.0 mi WSW 15.0 mph - N/A   Overcast
2:53 PM 36.0 °F 28.5 °F 25.0 °F 64% 29.87 in 10.0 mi West 10.4 mph - N/A   Overcast
3:53 PM 36.0 °F 28.5 °F 26.1 °F 67% 29.88 in 10.0 mi West 10.4 mph - N/A   Overcast
4:53 PM 36.0 °F 29.0 °F 26.1 °F 67% 29.90 in 10.0 mi West 9.2 mph - N/A   Overcast
5:53 PM 36.0 °F 29.6 °F 26.1 °F 67% 29.91 in 10.0 mi West 8.1 mph - N/A   Overcast
6:53 PM 36.0 °F 30.3 °F 26.1 °F 67% 29.93 in 10.0 mi WNW 6.9 mph - N/A   Overcast
7:53 PM 37.0 °F 28.9 °F 25.0 °F 62% 29.95 in 10.0 mi WNW 12.7 mph 24.2 mph N/A   Overcast
8:53 PM 36.0 °F 31.1 °F 25.0 °F 64% 29.96 in 10.0 mi WNW 5.8 mph - N/A   Overcast
9:53 PM 34.0 °F 28.0 °F 24.1 °F 67% 29.97 in 10.0 mi WNW 6.9 mph - N/A   Overcast
10:53 PM 33.1 °F 28.7 °F 24.1 °F 70% 30.00 in 10.0 mi West 4.6 mph - N/A   Overcast
11:53 PM 34.0 °F 28.0 °F 25.0 °F 70% 30.03 in 10.0 mi West 6.9 mph - N/A   Overcast